Temperature
14 14 14 14 15 15 16 16 16 17 17 17 17 17 17 17 17 17 17 17 17 17 17 17 17 17 17 16 16 16 16 16 16 16 16 16 15 15 15 15 15 15 15
14 14 14 15 15 15 16 16 16 16 16 17 17 17 17 17 17 17 17 17 17 17 17 17 17 17 16 16 16 16 16 16 16 16 16 16 15 15 15 15 15 15 15
14 14 14 14 15 15 15 16 16 16 16 16 16 17 17 17 17 17 17 17 17 17 17 16 16 16 16 16 16 16 16 16 16 16 16 15 15 15 15 15 15 15 15
14 14 14 14 15 15 15 16 16 16 16 16 16 16 16 16 17 16 16 16 16 16 16 16 16 16 16 16 16 16 16 16 16 15 15 15 15 15 15 15 15 15 14
13 14 14 14 14 15 15 15 15 16 16 16 16 16 16 16 16 16 16 16 16 16 16 16 16 16 16 16 16 16 16 15 15 15 15 15 15 15 15 15 15 14 14
13 13 13 14 14 14 14 15 15 15 15 15 16 16 16 16 16 16 16 16 16 16 16 16 16 16 16 16 16 16 15 15 15 15 15 15 15 15 15 14 14 14 14
13 13 13 13 14 14 14 14 14 15 15 15 15 15 15 16 16 16 16 16 16 16 16 16 15 15 15 15 15 15 15 15 15 15 15 15 15 15 14 14 14 14 14
13 13 13 13 13 13 13 14 14 14 14 14 15 15 15 15 15 15 15 15 15 15 15 15 15 15 15 15 15 15 15 15 15 15 15 15 15 14 14 14 14 14 14
12 12 13 13 13 13 13 13 13 13 13 14 14 14 14 14 14 14 14 15 15 15 15 15 15 14 15 15 15 15 15 15 15 15 14 14 14 14 14 14 14 14 13
12 12 12 12 12 12 12 13 13 13 13 13 13 13 13 14 14 14 14 14 14 14 14 14 14 14 14 14 14 14 14 14 14 14 14 14 14 14 14 14 14 14 13
12 12 12 12 12 12 12 12 12 12 13 13 13 13 13 13 13 13 13 13 13 13 14 14 14 14 14 14 14 14 14 14 14 14 14 14 14 14 14 14 14 13 13
12 12 12 11 11 12 12 12 12 12 12 12 12 12 12 12 12 12 13 13 13 13 13 13 13 13 13 13 13 13 13 13 14 13 13 13 13 13 14 14 13 13 13
11 11 11 11 11 11 11 11 12 12 12 12 12 12 12 12 12 12 12 12 12 12 12 12 13 13 13 13 13 13 13 13 13 13 13 13 13 13 13 13 13 13 13
11 11 11 11 11 11 11 11 11 11 11 11 11 11 11 11 11 11 11 11 11 11 12 12 12 12 12 12 12 12 12 13 13 13 13 13 13 13 13 13 13 13 13
11 11 11 10 10 10 10 10 10 10 10 10 10 10 10 10 10 10 10 11 11 11 11 11 11 11 11 11 11 12 12 12 12 12 12 12 12 12 12 12 12 12 12
11 10 10 10 10 10 10 10 10 10 10 10 10 10 10 10 10 10 10 10 10 10 10 10 10 10 11 11 11 11 11 11 12 12 12 12 12 12 12 12 12 12 12
10 10 10 10 10 10 9 9 9 9 9 9 9 9 9 9 9 9 9 9 9 9 9 9 10 10 10 10 10 10 10 11 11 11 11 12 12 12 12 12 12 12 12
10 10 10 10 10 9 9 9 9 9 9 9 9 9 9 9 8 8 8 8 8 8 8 9 9 9 9 9 9 10 10 10 10 10 11 11 11 11 11 11 11 11 11
10 10 10 10 9 9 9 9 9 9 9 9 9 8 8 8 8 8 8 8 7 8 8 8 8 8 8 8 8 9 9 9 10 10 10 10 10 11 11 11 11 11 11
10 10 10 9 9 9 9 9 9 8 8 8 8 8 8 8 7 7 7 7 7 7 7 7 7 7 7 7 7 8 8 9 9 9 10 10 10 10 10 10 10 10 11
10 10 9 9 9 9 8 8 8 8 8 8 8 8 7 7 7 7 7 7 6 6 6 6 6 6 6 6 6 7 8 8 8 9 9 9 9 10 10 10 10 10 10
10 9 9 9 9 8 8 8 8 8 8 8 7 7 7 7 7 6 6 6 6 6 6 6 6 6 6 5 5 5 5 6 7 8 8 8 9 9 9 9 9 9 9
9 9 9 9 8 8 8 8 7 7 7 7 7 7 7 6 6 6 6 5 5 5 5 5 5 5 5 5 4 4 4 4 5 6 7 8 8 8 8 9 9 9 9
9 9 9 8 8 8 7 7 7 7 7 7 6 6 6 6 6 6 5 5 5 5 5 5 4 4 4 4 4 4 4 4 3 4 6 6 7 7 8 8 8 8 8
9 9 8 8 8 7 7 7 7 6 6 6 6 6 6 6 5 5 5 5 4 4 4 4 4 4 4 3 3 3 3 3 3 3 4 5 6 6 7 7 7 8 8
9 8 8 8 8 7 7 7 6 6 6 6 5 5 5 5 5 5 4 4 4 4 4 4 4 4 3 3 3 3 3 3 3 3 3 4 4 5 6 7 7 7 7
Wind_Speed
2 5 5 7 9 10 11 12 12 12 11 11 11 11 10 9 8 7 7 6 5 4 4 4 4 4 5 5 5 5 6 5 5 6 6 7 7 7 7 8 8 7 8
2 4 4 7 9 10 11 11 12 12 12 11 10 10 10 9 9 8 7 6 5 4 3 3 3 3 4 4 5 4 5 5 5 6 6 6 7 7 7 8 8 7 8
1 3 5 8 9 10 10 11 11 12 12 12 11 10 9 9 9 8 7 6 6 4 3 2 2 2 3 4 4 4 4 5 6 6 5 5 5 7 8 8 8 8 8
3 4 6 9 10 10 11 11 11 11 11 11 11 11 10 9 9 8 8 7 6 5 5 3 2 1 2 3 4 4 4 4 5 5 5 5 5 6 7 8 8 8 8
5 6 7 9 10 11 11 11 11 11 11 11 11 11 11 10 9 8 8 8 7 6 5 4 3 2 0 1 3 4 4 4 4 4 5 6 6 6 7 8 8 8 8
5 7 8 10 10 10 11 11 11 11 11 11 11 11 11 11 11 9 8 8 8 7 6 5 3 2 1 1 1 3 4 4 4 4 4 6 6 8 8 8 8 8 9
5 7 8 10 10 11 11 11 11 11 11 11 11 11 11 11 11 11 9 8 8 7 6 5 4 3 2 2 2 2 3 4 4 4 5 6 7 9 9 9 9 9 9
5 7 9 10 10 11 11 11 11 11 12 12 12 12 12 12 11 11 10 9 8 8 7 6 4 4 3 3 2 3 2 3 4 4 5 7 9 10 10 11 10 10 10
6 6 7 9 10 10 11 11 11 11 12 12 12 12 12 12 12 12 12 11 9 9 8 7 5 4 4 4 4 4 3 2 3 4 6 7 9 11 11 11 11 11 11
4 5 5 7 8 9 9 10 10 10 11 11 11 12 12 11 11 12 12 12 11 10 10 9 7 5 5 5 5 5 3 3 4 5 5 7 9 11 12 12 12 11 12
3 2 3 5 6 7 7 8 9 9 9 10 10 10 10 9 9 10 11 12 12 11 11 10 9 7 6 5 6 5 4 3 4 5 6 8 10 11 12 12 13 13 13
2 1 1 2 3 5 5 6 7 7 8 8 8 8 8 8 8 9 10 12 12 12 11 11 10 9 6 5 5 5 3 4 4 5 7 10 12 12 13 12 12 13 14
3 2 0 1 2 3 3 4 5 6 6 7 7 7 7 7 7 8 7 8 10 10 9 10 9 7 6 4 4 4 4 4 5 6 8 11 13 13 14 14 13 14 14
4 3 1 1 1 2 2 2 2 3 4 4 5 6 5 4 4 5 5 6 6 6 6 6 5 7 6 6 4 4 4 4 5 6 8 11 13 14 15 15 15 15 15
4 4 2 1 1 0 1 1 2 2 2 3 4 5 4 2 2 3 3 4 5 5 5 5 5 5 5 5 5 5 5 5 6 6 7 11 13 15 16 16 16 16 16
5 4 3 2 2 1 1 1 1 1 2 2 3 4 4 2 2 2 3 3 4 5 5 4 5 4 4 4 5 5 6 6 6 7 7 9 12 14 16 17 16 16 17
6 4 4 4 2 2 1 1 1 1 2 2 3 4 4 3 3 2 3 3 4 6 5 4 5 3 4 5 6 6 6 6 6 7 7 8 9 12 15 16 16 16 17
5 5 4 3 2 2 2 2 1 2 2 2 3 4 4 5 4 2 2 3 5 5 3 3 4 4 4 5 6 6 6 6 7 7 7 7 8 9 11 15 15 16 16
6 5 4 3 3 3 2 1 1 2 2 2 3 3 4 5 5 3 3 3 4 3 3 4 4 3 5 6 6 6 6 6 7 8 8 8 8 8 8 11 14 15 16
5 4 4 3 3 2 1 1 1 2 2 2 3 3 4 5 5 4 3 4 4 3 4 4 4 4 4 5 7 8 7 7 7 7 8 7 7 8 8 9 10 11 14
4 3 3 3 2 1 0 1 1 2 3 3 3 4 5 5 5 4 4 3 3 4 5 5 4 5 5 4 4 6 6 7 7 7 7 7 7 8 7 8 8 8 10
5 4 4 4 3 3 2 2 2 2 2 3 4 4 5 5 5 5 4 4 4 4 5 5 4 4 4 3 2 4 4 5 4 6 6 7 7 6 7 8 9 9 9
5 5 5 4 4 4 2 1 1 2 2 2 4 4 5 6 6 6 6 5 5 5 5 6 6 6 6 4 3 3 3 4 5 4 6 6 6 6 6 7 9 10 11
7 5 4 4 4 3 2 2 2 2 4 5 4 5 6 6 7 7 7 6 6 6 6 7 6 6 6 6 4 5 6 5 4 5 4 4 6 7 7 7 8 9 11
5 4 4 3 3 3 3 3 3 4 5 4 5 6 7 6 6 7 7 6 7 6 7 7 7 7 7 7 6 5 6 6 7 7 9 6 5 6 7 7 7 8 10
3 3 3 3 3 3 3 4 4 5 6 6 7 7 6 5 6 7 7 6 7 7 8 8 8 8 8 9 8 7 6 6 6 7 9 10 9 7 7 7 7 7 9
Wind_Direction
294 309 356 35 45 48 45 44 45 46 47 49 53 56 58 60 63 66 72 82 93 105 119 129 135 140 137 140 143 151 156 160 163 163 162 158 153 151 149 144 138 130 132
227 324 33 49 51 52 48 45 45 45 45 45 48 52 53 53 55 57 60 63 69 81 98 121 134 142 138 137 141 146 157 160 156 159 163 164 162 160 157 153 152 149 144
75 25 48 58 55 54 50 46 45 44 44 44 44 46 49 50 48 49 50 53 52 54 58 81 120 154 158 154 154 160 158 165 162 162 163 164 174 175 170 165 165 161 158
71 47 57 62 56 52 50 47 46 45 44 42 41 40 42 43 43 43 42 41 40 41 41 40 49 111 179 181 172 171 168 164 169 168 166 169 181 186 182 179 177 172 167
61 50 59 64 57 52 50 47 46 45 43 40 39 36 35 36 35 37 36 33 29 28 30 30 30 40 67 195 193 189 181 173 172 167 172 180 186 197 194 192 188 183 178
61 51 61 64 58 53 51 47 44 43 41 39 37 34 31 30 29 27 28 27 22 18 18 19 13 20 357 270 212 209 200 188 175 173 183 192 198 209 204 199 196 195 190
71 52 59 61 57 53 50 48 45 43 40 37 34 32 30 28 25 22 20 20 16 10 5 2 360 360 348 307 249 234 219 202 181 183 196 203 211 216 215 212 206 200 196
85 60 54 60 58 53 49 48 45 43 40 37 33 31 28 26 22 19 17 14 12 5 2 355 349 346 340 324 283 253 237 212 199 203 210 212 219 224 223 219 213 210 207
75 67 55 55 56 53 49 46 44 41 40 37 34 30 28 25 22 18 15 11 10 8 360 351 341 335 330 320 306 278 252 231 208 213 221 220 229 232 229 224 218 217 217
62 59 54 51 52 49 47 44 42 40 39 36 32 29 26 23 19 17 13 10 8 5 2 354 342 333 330 323 313 303 271 238 228 226 223 228 237 238 235 230 226 223 223
67 47 54 51 45 44 46 43 40 37 34 31 28 26 23 19 15 12 9 7 5 2 0 358 350 340 333 323 315 304 279 244 240 236 230 239 241 242 240 237 234 230 227
154 97 56 60 46 43 41 37 35 33 29 25 21 18 20 18 14 10 6 5 1 358 356 353 350 344 333 320 314 314 277 265 244 243 242 244 243 246 245 243 239 235 230
184 172 145 97 57 50 38 32 29 25 23 19 15 12 15 16 11 9 7 1 358 356 355 348 350 348 338 326 316 308 293 269 251 248 250 250 248 249 249 247 243 239 235
183 198 204 153 74 45 41 28 24 19 15 9 1 2 15 17 9 5 4 355 356 353 348 347 345 336 332 322 305 296 294 283 267 258 256 256 251 251 252 250 246 243 241
191 204 213 203 180 94 48 7 18 2 356 346 350 350 360 13 338 346 347 351 345 342 340 332 329 325 321 313 309 292 279 280 276 265 261 262 257 251 253 254 250 246 245
200 206 209 212 202 178 182 250 289 317 327 340 342 333 334 342 338 322 318 328 331 329 326 320 305 301 302 299 294 292 281 278 274 270 265 262 262 257 254 256 255 250 247
202 203 208 211 198 201 229 252 285 297 313 332 327 323 319 313 315 312 303 306 316 319 319 321 312 307 305 308 298 292 287 282 277 271 270 262 258 259 256 256 257 256 250
196 201 214 208 204 228 238 248 276 296 306 309 310 315 314 309 303 311 294 296 312 322 318 300 303 302 302 304 297 290 286 282 280 274 270 264 258 256 258 257 258 258 255
197 199 210 213 210 228 244 251 274 289 290 296 299 302 303 306 303 301 283 293 313 310 298 295 304 289 294 297 293 286 277 274 272 274 266 260 256 253 253 258 257 260 258
197 199 205 215 220 224 257 308 312 300 288 287 286 287 291 298 297 294 288 291 302 296 295 286 285 286 277 287 291 292 279 269 263 259 258 257 254 252 251 255 254 257 257
193 199 206 212 228 206 259 276 290 289 296 298 290 288 289 292 294 289 286 288 285 283 283 280 275 287 285 290 297 300 287 265 256 255 250 249 248 251 250 251 251 253 257
200 207 215 217 223 226 226 230 231 256 276 279 285 293 289 291 292 292 278 277 276 278 283 279 272 272 282 276 280 309 305 298 266 255 247 246 247 247 247 254 251 248 253
212 213 218 224 229 232 228 252 316 327 313 300 296 293 289 290 287 282 277 271 270 263 270 270 260 256 272 266 230 234 270 276 310 271 247 245 246 252 252 250 249 249 248
219 217 219 224 229 234 217 214 237 270 277 272 279 282 285 282 281 280 276 270 268 264 264 266 263 250 255 263 254 236 240 249 270 293 279 254 256 257 252 260 252 249 247
213 212 219 226 238 240 229 222 235 260 269 280 285 285 287 283 279 277 275 270 269 266 264 264 264 254 247 249 249 250 256 256 247 257 279 278 271 252 252 250 249 250 249
216 215 217 228 252 248 242 239 236 254 272 283 288 289 290 289 285 276 273 268 267 265 263 261 260 254 250 249 248 244 248 253 250 251 265 275 278 274 266 254 248 248 252
Height
1506 1506 1507 1508 1508 1508 1509 1509 1509 1510 1510 1511 1511 1511 1512 1513 1513 1514 1514 1515 1515 1516 1516 1516 1517 1517 1517 1518 1518 1519 1519 1519 1520 1520 1520 1520 1521 1521 1521 1522 1522 1522 1522
1505 1506 1507 1507 1508 1508 1509 1509 1509 1509 1510 1510 1511 1511 1512 1512 1513 1513 1514 1514 1515 1515 1516 1516 1516 1516 1517 1517 1517 1518 1518 1519 1519 1520 1520 1520 1520 1521 1521 1521 1522 1522 1522
1504 1505 1506 1507 1507 1508 1508 1508 1509 1509 1509 1510 1510 1510 1511 1511 1512 1512 1513 1513 1514 1514 1515 1515 1515 1515 1516 1516 1516 1517 1517 1518 1519 1519 1519 1520 1520 1520 1520 1521 1521 1522 1522
1504 1505 1506 1506 1507 1507 1507 1508 1508 1508 1508 1509 1509 1509 1510 1510 1510 1511 1511 1512 1512 1513 1513 1514 1514 1514 1515 1515 1515 1516 1516 1517 1517 1518 1518 1519 1519 1519 1520 1520 1521 1521 1521
1504 1504 1505 1506 1506 1506 1506 1507 1507 1507 1507 1507 1508 1508 1508 1509 1509 1509 1510 1510 1511 1511 1511 1512 1512 1513 1513 1513 1514 1514 1515 1515 1516 1516 1517 1517 1518 1518 1518 1519 1520 1520 1520
1503 1504 1504 1505 1505 1505 1505 1505 1505 1506 1506 1506 1506 1506 1507 1507 1507 1507 1508 1508 1508 1509 1509 1510 1510 1510 1511 1511 1512 1512 1513 1513 1514 1514 1515 1516 1516 1517 1517 1518 1518 1518 1519
1503 1504 1504 1504 1504 1504 1504 1504 1504 1504 1504 1504 1504 1504 1505 1505 1505 1505 1506 1506 1506 1506 1507 1507 1507 1508 1508 1509 1509 1510 1510 1511 1511 1512 1513 1514 1514 1515 1515 1516 1516 1517 1517
1502 1503 1503 1503 1503 1503 1503 1503 1503 1502 1502 1502 1502 1502 1502 1502 1503 1503 1503 1503 1503 1504 1504 1504 1505 1505 1505 1506 1507 1507 1507 1508 1509 1510 1510 1511 1512 1512 1513 1513 1514 1514 1515
1502 1502 1503 1503 1502 1502 1502 1502 1501 1501 1501 1500 1500 1500 1500 1500 1500 1500 1500 1501 1501 1501 1501 1501 1502 1502 1502 1503 1503 1504 1504 1505 1506 1506 1507 1508 1509 1509 1510 1511 1511 1512 1512
1501 1501 1502 1502 1501 1501 1501 1500 1500 1500 1499 1499 1499 1498 1498 1498 1498 1498 1498 1498 1498 1498 1498 1498 1499 1498 1499 1499 1500 1500 1501 1501 1502 1503 1504 1504 1505 1506 1507 1507 1508 1509 1509
1500 1500 1500 1500 1500 1500 1499 1499 1499 1498 1498 1497 1497 1497 1496 1496 1495 1495 1495 1495 1495 1495 1495 1495 1495 1495 1495 1496 1496 1496 1497 1497 1498 1499 1499 1500 1501 1502 1503 1504 1504 1505 1506
1498 1499 1499 1499 1499 1498 1498 1498 1497 1497 1496 1495 1495 1494 1494 1493 1493 1492 1492 1492 1492 1492 1492 1491 1491 1491 1491 1491 1492 1492 1493 1493 1493 1494 1495 1496 1497 1498 1499 1500 1500 1501 1502
1497 1497 1498 1497 1497 1497 1497 1496 1496 1495 1494 1494 1493 1492 1492 1491 1490 1490 1489 1489 1489 1488 1488 1488 1488 1487 1487 1487 1487 1488 1488 1488 1488 1489 1490 1491 1492 1493 1494 1495 1496 1496 1497
1495 1496 1496 1496 1496 1495 1495 1495 1494 1493 1493 1492 1491 1490 1489 1488 1487 1487 1486 1485 1485 1484 1484 1484 1483 1483 1483 1483 1483 1483 1483 1483 1483 1484 1485 1486 1487 1488 1489 1490 1490 1491 1492
1493 1494 1494 1494 1494 1494 1493 1493 1492 1491 1491 1490 1489 1488 1487 1486 1485 1484 1483 1482 1481 1481 1480 1480 1479 1479 1478 1478 1478 1478 1478 1478 1478 1479 1479 1480 1481 1482 1483 1484 1485 1486 1487
1491 1492 1492 1492 1492 1492 1491 1491 1490 1489 1488 1488 1487 1486 1484 1483 1482 1481 1479 1478 1478 1477 1476 1475 1475 1474 1473 1473 1473 1473 1473 1473 1473 1473 1473 1474 1475 1476 1477 1478 1479 1480 1480
1489 1490 1490 1490 1490 1490 1489 1489 1488 1487 1486 1485 1484 1483 1482 1480 1479 1477 1476 1475 1474 1473 1472 1471 1470 1469 1469 1468 1467 1468 1467 1467 1467 1468 1468 1468 1468 1469 1470 1471 1472 1473 1474
1487 1488 1488 1488 1488 1488 1487 1486 1486 1485 1484 1483 1481 1480 1479 1477 1476 1474 1472 1471 1470 1469 1468 1466 1465 1464 1463 1462 1462 1462 1461 1461 1461 1461 1462 1462 1462 1463 1463 1464 1466 1467 1468
1484 1485 1485 1486 1485 1485 1484 1484 1483 1482 1481 1480 1478 1477 1475 1474 1472 1471 1469 1467 1466 1465 1463 1462 1461 1460 1458 1457 1456 1455 1455 1454 1454 1455 1455 1456 1456 1456 1457 1458 1459 1460 1461
1481 1482 1482 1483 1483 1482 1481 1481 1480 1479 1477 1476 1475 1473 1472 1470 1469 1467 1465 1464 1462 1461 1459 1457 1456 1455 1454 1452 1451 1449 1448 1448 1448 1448 1448 1449 1449 1450 1450 1451 1452 1453 1454
1478 1478 1479 1479 1479 1478 1477 1476 1475 1474 1473 1472 1471 1470 1468 1467 1465 1463 1461 1460 1458 1456 1455 1453 1451 1450 1449 1448 1446 1443 1441 1441 1441 1441 1441 1442 1442 1443 1444 1444 1445 1446 1447
1474 1475 1475 1476 1476 1475 1474 1474 1472 1471 1469 1468 1467 1466 1464 1463 1461 1459 1457 1455 1454 1452 1450 1449 1447 1445 1444 1444 1443 1440 1436 1434 1433 1434 1434 1435 1435 1436 1437 1438 1438 1439 1440
1470 1471 1472 1472 1472 1472 1471 1470 1469 1467 1465 1464 1462 1461 1460 1458 1456 1455 1453 1451 1449 1447 1445 1444 1442 1440 1439 1439 1440 1440 1437 1432 1428 1426 1427 1428 1428 1429 1430 1431 1432 1432 1433
1466 1468 1468 1469 1469 1468 1467 1466 1465 1463 1461 1459 1458 1456 1454 1453 1451 1449 1447 1446 1444 1442 1440 1439 1437 1436 1435 1433 1434 1434 1433 1431 1428 1421 1419 1421 1422 1422 1423 1424 1424 1425 1426
1463 1464 1465 1465 1465 1465 1464 1463 1461 1459 1457 1455 1453 1451 1449 1447 1446 1444 1442 1440 1438 1436 1435 1433 1432 1430 1429 1428 1427 1427 1427 1426 1424 1421 1415 1413 1414 1415 1416 1416 1417 1417 1419
1459 1460 1461 1461 1461 1461 1460 1459 1457 1455 1453 1450 1448 1446 1443 1441 1439 1438 1436 1434 1432 1430 1429 1427 1425 1424 1423 1422 1421 1421 1420 1419 1418 1416 1412 1408 1407 1406 1408 1409 1410 1410 1411